This is the latest recevied weather packets stored in our database for station/object NC4M. If no packets are shown the sender has not sent any weather packets the latest 10 day(s).
| Time | Temp. | Humidity | Pressure | Rain* | Wind** | Luminosity | Snow |
|---|---|---|---|---|---|---|---|
| 1777734750 | 12.78° C | 53% | 1020.5 hPa | 0 mm | - | 81 W/m² | - |
| 1777734447 | 13.33° C | 55% | 1020.3 hPa | 0 mm | - | 68 W/m² | - |
| 1777734144 | 12.78° C | 58% | 1020.2 hPa | 0 mm | - | 91 W/m² | - |
| 1777733840 | 12.78° C | 58% | 1020.2 hPa | 0 mm | - | 94 W/m² | - |
| 1777733537 | 12.78° C | 61% | 1020.1 hPa | 0 mm | - | 67 W/m² | - |
| 1777733233 | 12.78° C | 59% | 1020.2 hPa | 0 mm | - | 74 W/m² | - |
| 1777732930 | 12.78° C | 65% | 1020.1 hPa | 0 mm | - | 100 W/m² | - |
| 1777732626 | 12.22° C | 63% | 1020 hPa | 0 mm | - | 65 W/m² | - |
| 1777732324 | 12.22° C | 65% | 1020 hPa | 0 mm | - | 62 W/m² | - |
| 1777732021 | 12.22° C | 65% | 1020 hPa | 0 mm | - | 81 W/m² | - |
| 1777731718 | 12.22° C | 63% | 1020.1 hPa | 0 mm | - | 61 W/m² | - |
| 1777731414 | 11.67° C | 64% | 1020 hPa | 0 mm | - | 85 W/m² | - |
| 1777731113 | 11.67° C | 65% | 1020 hPa | 0 mm | - | 98 W/m² | - |
| 1777730811 | 11.67° C | 66% | 1019.7 hPa | 0 mm | - | 92 W/m² | - |
| 1777730508 | 11.11° C | 68% | 1019.9 hPa | 0 mm | - | 334 W/m² | - |
| 1777730203 | 11.11° C | 69% | 1019.9 hPa | 0 mm | - | 73 W/m² | - |
| 1777729900 | 10.56° C | 68% | 1019.8 hPa | 0 mm | - | 57 W/m² | - |
| 1777729597 | 10° C | 72% | 1019.8 hPa | 0 mm | - | 58 W/m² | - |
| 1777729294 | 10° C | 75% | 1019.7 hPa | 0 mm | - | 62 W/m² | - |
| 1777728990 | 9.44° C | 74% | 1019.7 hPa | 0 mm | - | 70 W/m² | - |
| 1777728687 | 8.89° C | 77% | 1019.6 hPa | 0 mm | - | 127 W/m² | - |
| 1777728384 | 8.89° C | 76% | 1019.5 hPa | 0 mm | - | 124 W/m² | - |
| 1777728081 | 8.33° C | 78% | 1019.5 hPa | 0 mm | - | 86 W/m² | - |
| 1777727778 | 7.78° C | 80% | 1019.6 hPa | 0 mm | - | 69 W/m² | - |
| 1777727475 | 7.78° C | 79% | 1019.5 hPa | 0 mm | - | 59 W/m² | - |
* Rain latest hour (hover to see other rain measurements)
** Current wind speed in m/s (hover to see current wind gust speed)